Powrót do katalogu

STARLINK-2034

AktywnyŁącznośćVLEO
NORAD 47352·PAYLOAD·🇺🇸 United States

Wystrzelony Jan 20, 2021 z Cape Canaveral Space Force Station

Loading…

Następne Przeloty (najbliższe 24 godziny)

TLE

ŚwieżeSource: CelesTrak SupGP

Epoka: Sep 14, 2026, 20:49 UTC

1 47352C 21005D   26257.86784722  .00051937  00000+0  16706-2 0  2578
2 47352  53.1570 252.3323 0001398  91.8851 168.0001 15.31667190    13

Śledź STARLINK-2034 w czasie rzeczywistym z AllMySat

Download on the App Store